カタログに戻る

LEMUR 2 BASS

運用中科学SSO
NORAD 58259·PAYLOAD·🇺🇸 United States

打ち上げ Nov 11, 2023 から Vandenberg Space Force Base

Loading…

次のパス (今後24時間)

TLE

最新Source: Space-Track

元期: Sep 13, 2026, 18:40 UTC

1 58259U 23174D   26256.77801872  .00014442  00000-0  30000-3 0  9998
2 58259  97.3809 342.8818 0006169 197.0313 163.0730 15.45761962159031

AllMySatでLEMUR 2 BASSをリアルタイム追跡

Download on the App Store